Wind_Speed
14 14 15 15 16 16 18 20 21 22 23 23 24 25 26 26 26 27 28 30 32 33 33 32 27 22 16 11 6 6 8 7 5 7 8 10 9 7 9 10 12 14 12 9 6 5 5 5 6 6 8 7 5 7 5 4 4 3 3 3 1 2 4 5 7 6 1 5 5 7 7 4 12 12 10 14 14 17 21 25 24 22 24 24 22 20 19 21
14 14 15 15 16 16 18 20 21 21 21 22 23 24 25 25 25 26 27 29 32 33 33 31 27 22 16 10 3 6 7 4 2 7 11 10 7 7 9 11 12 12 10 8 6 4 5 5 7 7 9 6 4 5 3 3 4 2 3 1 2 4 5 5 7 5 3 6 10 15 13 5 15 16 10 9 10 13 16 23 23 19 24 23 21 21 22 25
14 15 15 16 16 17 18 19 20 20 20 21 22 23 25 25 25 25 26 28 30 32 33 30 26 22 17 9 3 4 8 4 4 9 11 8 5 7 9 10 10 10 9 9 7 5 5 6 7 8 9 5 3 5 3 4 4 1 3 1 5 5 4 5 7 7 7 10 11 16 14 10 23 21 9 5 10 12 9 15 16 17 28 30 28 29 29 30
15 15 16 17 17 17 18 18 19 20 20 20 21 23 24 25 25 25 25 26 29 32 33 30 24 21 17 8 4 2 9 4 7 9 8 5 5 6 8 8 8 9 9 8 7 5 6 6 8 8 6 3 5 6 3 6 4 1 3 3 5 3 2 7 8 8 9 9 9 15 15 14 23 19 9 5 8 11 10 15 17 19 30 31 30 29 29 28
15 16 17 17 18 18 18 18 19 20 20 20 21 22 24 25 25 25 25 26 28 31 32 29 23 19 13 6 5 1 9 3 6 6 5 4 5 6 6 7 8 9 10 9 8 7 7 7 8 8 6 3 5 5 4 7 4 1 4 7 6 4 3 8 5 4 6 7 11 14 12 16 19 16 14 7 2 10 18 24 24 24 29 29 30 30 27 24
15 16 17 18 19 19 19 19 19 19 20 20 21 22 23 25 25 24 24 25 28 30 30 27 21 15 9 6 5 4 8 4 3 3 4 3 5 5 6 8 9 11 10 10 9 8 8 8 9 7 6 4 3 2 4 7 2 1 5 6 8 7 7 9 6 5 7 8 11 12 14 18 16 15 14 9 12 20 24 23 22 22 24 26 28 30 30 25
15 16 17 19 19 20 20 20 19 19 19 20 21 21 23 24 24 24 23 25 29 30 29 25 18 11 6 8 8 9 10 7 3 3 3 4 6 7 8 9 11 11 10 8 7 8 8 10 10 6 5 3 1 1 4 6 1 1 4 6 10 10 11 12 12 12 13 13 15 16 16 18 14 11 10 10 19 23 19 16 18 21 23 24 26 27 31 29
15 16 17 19 20 21 21 21 21 20 20 19 20 21 22 23 23 23 23 25 29 31 29 22 14 8 6 7 8 12 12 8 4 3 4 7 7 8 8 9 9 9 8 7 7 9 9 9 9 6 2 1 1 2 3 6 2 4 5 8 11 15 16 14 15 16 15 13 15 14 11 18 20 13 12 17 19 15 13 16 18 21 23 24 26 26 29 30
15 16 17 18 20 21 22 22 22 21 20 19 20 21 22 22 22 23 22 25 29 31 28 18 10 6 5 2 3 8 9 7 5 5 6 7 7 8 8 8 9 8 8 8 8 9 8 7 7 5 2 1 2 2 1 2 2 4 6 10 12 23 26 18 14 11 10 10 8 6 7 18 23 13 10 11 10 13 17 19 20 23 25 25 25 25 27 29
15 16 17 18 20 21 22 23 22 21 20 19 19 20 21 22 22 22 22 24 28 31 26 15 7 6 5 0 2 6 6 7 7 7 8 7 7 7 8 10 11 11 10 9 9 9 9 7 6 5 3 3 2 2 1 1 3 4 9 15 15 25 27 17 11 5 11 10 7 9 6 17 18 8 4 6 12 19 23 24 25 26 25 24 23 23 24 27
15 16 17 19 20 21 22 23 22 21 20 19 19 19 21 21 21 21 21 24 28 31 25 12 4 6 7 7 10 8 6 9 9 10 10 7 6 7 9 12 13 13 12 11 11 11 11 8 6 5 2 2 2 2 3 3 6 7 10 13 14 21 21 11 4 6 14 6 8 8 7 12 11 1 6 12 17 19 27 32 30 26 24 23 22 21 23 27
15 17 18 19 20 21 22 23 22 21 20 20 19 19 20 20 20 20 20 23 28 31 23 10 2 3 6 11 14 11 9 11 11 12 12 9 7 8 11 14 15 14 13 12 12 12 12 9 7 4 1 2 3 1 2 5 7 7 6 5 8 14 14 8 5 9 13 2 3 5 4 5 3 6 11 16 18 22 32 33 29 27 26 27 26 25 26 25
16 17 18 19 20 21 22 22 21 21 20 20 20 19 20 19 19 19 19 23 28 29 22 10 2 4 1 7 10 10 9 11 12 13 13 12 10 7 10 14 15 15 14 12 12 13 12 9 7 4 2 2 2 2 6 8 6 5 2 1 4 9 7 9 9 12 12 4 13 13 2 4 5 10 14 12 17 28 34 34 33 33 32 32 29 25 23 22
16 18 19 19 20 21 22 22 21 20 20 20 20 19 20 18 18 18 19 24 27 28 20 9 1 4 3 6 8 8 7 8 10 14 16 16 13 8 9 14 15 15 14 11 12 13 12 9 7 4 2 2 3 4 7 5 3 2 2 2 3 4 5 11 12 10 9 6 16 16 4 6 6 12 13 11 19 26 30 36 36 36 35 30 26 25 25 27
17 18 19 19 21 21 21 22 21 20 20 21 20 20 20 17 18 18 18 25 27 26 19 8 1 5 5 7 5 6 4 4 7 13 19 18 15 10 8 14 15 15 13 9 12 13 13 9 6 5 2 3 4 4 3 4 4 2 3 3 2 2 6 11 9 4 6 6 13 14 5 9 10 12 12 17 21 20 22 31 34 34 28 26 28 29 29 30
17 18 19 20 21 20 21 21 21 21 21 22 21 21 19 16 18 16 17 26 26 24 18 8 2 4 4 3 3 5 5 5 6 12 19 19 16 11 9 13 14 15 12 7 11 13 13 9 5 6 5 3 3 3 4 4 4 3 3 4 5 4 7 10 4 5 7 6 8 6 3 10 13 15 23 27 25 21 17 22 30 27 24 26 28 29 30 31
17 18 18 20 20 20 21 21 22 22 21 22 22 22 18 16 18 13 16 25 24 23 15 4 4 3 3 4 1 6 7 5 7 10 17 19 16 12 11 13 13 13 10 5 10 13 13 8 3 3 5 4 2 3 6 5 4 4 3 3 5 4 5 8 5 2 9 8 7 6 5 11 14 16 27 28 25 26 24 24 24 21 24 26 28 28 29 31
17 18 18 19 20 21 21 21 22 22 22 22 22 23 18 16 17 10 16 25 23 21 9 3 7 1 2 6 5 8 5 4 6 11 17 18 16 12 13 15 13 13 10 4 8 13 12 7 3 1 4 4 4 6 4 1 3 4 4 4 5 4 4 6 8 6 10 5 6 10 10 15 18 13 19 25 22 22 27 24 19 22 24 26 28 29 29 31
17 17 18 19 19 21 21 21 23 23 24 22 22 23 18 19 17 6 17 28 20 12 4 6 9 1 2 6 8 7 3 4 6 13 17 17 17 13 14 16 13 14 11 4 8 12 10 6 4 4 5 5 4 3 2 6 6 6 6 4 5 7 5 5 7 6 10 9 8 10 14 20 23 15 16 26 24 20 22 16 21 22 23 26 28 29 29 31
17 17 17 18 19 21 21 22 22 23 24 23 25 24 18 20 13 4 19 26 15 10 7 7 6 1 1 6 9 6 3 2 5 15 17 17 19 15 14 16 14 14 10 2 6 8 8 6 3 1 3 6 5 3 4 4 4 4 5 3 5 8 8 5 4 4 8 9 9 12 18 25 24 16 15 24 24 18 16 13 19 19 21 24 26 27 29 30
16 16 17 18 18 20 21 21 22 22 23 23 25 21 14 13 7 5 17 16 15 16 8 2 1 1 1 4 10 8 3 2 2 14 17 17 19 12 12 14 10 9 6 3 5 4 6 5 1 5 5 5 4 4 3 1 2 3 4 5 6 6 9 9 3 3 8 8 11 14 19 28 22 15 17 18 16 10 10 14 14 18 20 23 26 27 28 29
16 16 17 18 18 20 20 20 21 20 20 21 21 18 13 11 8 9 10 8 16 13 2 1 2 3 2 3 9 8 5 3 2 13 17 16 17 10 7 9 5 2 6 5 3 5 7 2 6 6 4 1 3 4 4 2 2 4 3 4 5 4 7 9 3 3 6 4 11 14 15 26 18 12 15 9 6 7 19 21 18 21 22 24 26 27 28 31
15 15 16 17 18 19 19 20 20 19 19 19 17 16 14 13 13 11 7 6 11 6 2 2 3 4 4 3 8 8 6 7 5 13 17 15 13 10 6 5 3 2 4 5 4 4 4 5 6 2 3 4 4 4 5 4 2 3 4 3 5 5 6 7 9 13 8 3 7 10 10 18 12 8 12 6 12 14 23 26 28 27 24 25 25 26 30 33
15 15 16 17 18 19 19 19 19 17 18 18 15 15 14 15 14 11 7 4 5 3 2 3 2 1 2 4 8 8 5 7 7 11 15 13 10 6 4 3 3 2 1 1 3 0 6 9 4 3 5 5 3 5 5 4 4 3 3 2 4 7 6 7 10 16 15 2 3 5 8 13 8 7 12 8 15 17 20 25 31 29 24 25 25 28 31 33
15 15 15 16 17 18 19 18 17 15 17 16 14 14 14 15 13 10 7 2 3 4 2 3 2 1 1 4 8 6 3 5 9 11 12 12 8 4 2 2 2 1 3 2 2 3 6 6 2 4 6 7 4 4 2 0 4 4 2 1 4 7 7 9 11 12 13 7 3 6 9 13 9 9 11 8 11 11 14 19 24 26 23 24 26 28 31 34
15 15 15 16 17 18 19 17 15 15 16 14 13 14 13 14 13 9 6 3 2 3 1 3 2 1 2 4 7 6 2 3 6 8 10 11 8 4 2 0 1 0 3 1 2 2 4 3 3 5 5 7 6 3 4 2 1 3 2 1 2 5 6 10 12 8 7 10 2 7 3 12 11 6 7 4 9 8 10 13 18 23 20 19 21 23 28 33
14 15 16 16 17 18 18 17 16 16 15 13 12 13 12 13 12 8 5 4 2 2 1 2 3 2 3 3 7 5 2 3 3 5 8 10 7 3 2 3 1 1 2 2 3 2 3 4 6 6 6 6 4 2 4 2 3 2 1 2 4 6 8 9 9 6 5 9 6 4 5 8 8 3 3 5 7 8 10 11 15 21 19 17 18 20 27 31
14 15 16 16 17 17 18 17 16 15 14 12 12 11 11 12 10 5 4 2 2 1 1 2 2 2 1 3 5 3 1 3 2 3 7 7 7 3 2 2 2 3 1 3 3 3 2 2 5 5 6 3 1 1 4 0 1 4 3 2 3 5 8 7 6 7 4 5 5 2 4 4 6 3 5 7 6 8 11 11 12 18 20 19 19 23 29 33
14 15 15 16 17 17 17 17 16 15 12 11 12 10 11 11 6 4 4 0 2 1 2 1 3 2 3 3 2 4 3 2 1 4 5 4 6 5 1 2 2 2 1 3 4 4 1 1 3 5 4 1 2 2 2 4 2 6 5 3 3 4 6 4 5 6 4 4 3 3 1 2 8 6 5 5 6 7 9 9 10 17 20 20 23 29 35 40
14 14 15 16 17 17 17 16 15 13 12 11 11 10 10 9 2 5 2 3 0 0 1 1 2 3 5 3 2 3 3 1 3 6 5 2 5 7 2 2 2 3 1 3 1 5 5 1 3 4 2 4 3 2 2 5 1 5 4 5 5 4 3 2 2 2 3 2 3 3 3 3 7 5 3 3 5 5 6 8 12 19 23 23 29 36 41 43
14 14 15 16 17 17 16 16 14 12 11 10 10 10 9 5 4 4 3 3 1 1 0 1 2 2 4 2 2 3 3 2 4 6 5 4 5 9 6 2 3 4 3 4 2 6 7 3 3 3 2 2 4 3 2 4 6 6 5 4 5 5 3 1 2 2 2 4 3 1 6 5 7 3 5 5 5 7 7 10 12 15 20 26 35 43 45 45
14 14 15 16 17 17 17 16 13 12 11 9 8 9 5 3 2 3 4 2 2 2 0 0 2 2 4 2 2 2 2 2 4 5 2 2 3 5 5 1 1 4 3 2 2 6 6 2 1 1 3 3 4 2 4 5 8 8 4 4 4 4 5 3 3 1 4 8 2 3 8 5 9 5 4 5 7 9 8 13 16 17 25 36 44 49 49 49
15 15 15 17 17 17 17 15 13 11 10 8 6 5 5 3 3 4 2 2 1 1 1 1 1 1 2 1 2 1 0 2 2 4 1 2 4 2 2 0 2 0 2 1 1 3 4 3 3 1 2 5 4 4 3 3 4 4 2 2 3 2 5 6 5 3 4 9 8 6 4 5 6 2 4 5 2 9 17 25 27 29 36 42 45 46 46 46
16 15 17 18 18 18 16 14 13 10 8 6 3 3 3 2 5 3 2 4 3 2 2 1 2 2 0 1 3 1 0 1 1 3 1 2 3 1 2 3 2 1 1 1 1 1 1 3 2 1 1 2 4 4 4 3 3 1 2 3 3 2 1 4 4 3 5 12 15 11 4 3 2 1 5 2 5 18 31 31 27 30 36 40 40 41 42 43
17 17 18 19 18 18 16 15 13 9 7 3 2 2 2 4 4 2 3 4 2 1 2 2 1 2 3 2 2 1 2 1 1 2 2 1 1 2 2 2 3 1 3 0 2 2 1 4 2 2 1 4 2 2 4 5 3 2 2 3 1 2 4 3 3 3 4 10 12 6 4 5 3 1 1 7 14 23 28 23 21 28 35 36 36 37 40 43
18 19 19 19 19 17 15 15 12 9 7 2 3 2 5 5 3 3 3 2 1 2 1 4 1 1 4 2 2 1 2 1 1 1 1 0 2 3 4 2 1 1 2 2 1 1 1 3 3 1 1 3 1 2 2 4 2 1 2 1 4 3 5 1 4 4 2 6 6 5 8 8 5 5 7 13 16 18 17 15 19 30 35 34 34 38 41 44
20 21 21 19 18 16 16 15 12 9 6 5 3 5 5 4 5 4 3 2 2 3 3 2 2 3 2 2 1 1 0 1 1 1 1 1 1 3 4 2 2 2 2 2 1 2 2 3 6 4 2 1 3 9 9 7 4 3 1 3 3 0 3 4 1 3 3 5 5 6 13 13 7 4 7 13 17 16 13 13 19 28 31 31 34 40 44 46
21 21 22 20 19 17 16 16 13 9 6 5 4 6 3 4 5 4 5 5 2 3 3 3 4 3 2 2 2 2 1 1 1 1 1 1 1 4 5 2 3 1 2 1 1 1 2 1 4 1 3 2 3 9 6 7 8 4 3 2 2 1 1 1 2 1 4 5 4 8 14 11 4 1 8 15 17 15 13 15 18 22 25 30 36 41 44 47
20 18 16 16 16 17 17 16 12 8 6 4 4 5 3 4 5 5 7 5 3 3 3 5 4 1 2 3 2 2 2 2 1 0 1 1 0 3 5 2 3 1 2 2 3 1 1 1 1 1 3 3 2 3 0 3 5 3 2 3 2 2 2 1 1 2 3 4 3 7 12 7 1 3 12 16 15 12 13 16 17 19 25 33 38 41 44 46
17 11 10 11 11 14 15 14 10 8 5 3 5 4 1 2 4 6 10 7 4 4 3 3 4 3 2 2 2 2 2 2 2 2 2 1 1 2 3 2 3 1 2 1 2 1 1 1 2 3 2 1 1 1 3 3 1 1 3 2 1 1 0 1 1 2 3 1 1 4 12 8 2 6 12 14 13 11 13 16 17 21 31 37 41 44 46 47
12 6 8 11 11 12 12 10 7 6 3 2 3 3 2 3 3 5 10 11 8 6 5 4 4 4 3 2 2 3 3 2 3 3 3 2 1 1 3 4 4 3 1 2 1 1 1 1 3 3 3 1 3 4 4 6 6 5 3 2 2 1 1 2 3 2 3 2 3 3 12 10 2 4 9 11 11 11 15 18 18 25 36 41 44 47 48 49
10 6 8 11 12 13 12 8 4 3 3 3 4 4 4 4 4 5 9 10 8 6 5 3 3 4 3 3 3 4 4 3 4 3 3 3 2 1 6 8 6 4 3 1 1 2 2 2 1 4 4 3 4 4 1 5 7 5 3 2 2 2 3 1 4 4 2 3 4 4 11 11 2 2 7 9 13 18 22 23 22 29 40 44 46 49 50 53
11 11 12 12 13 15 12 5 2 2 3 4 3 4 5 5 4 4 6 7 6 4 4 3 4 5 4 3 4 5 4 3 4 4 2 1 2 4 9 10 6 5 4 1 1 2 2 3 1 3 3 1 4 6 4 4 4 2 1 2 3 2 2 4 5 4 4 5 4 3 10 11 4 4 8 13 19 24 28 29 28 32 40 45 47 50 52 54
14 14 13 13 16 18 13 5 4 5 5 3 2 4 5 6 7 6 6 7 7 5 3 3 4 4 4 2 4 5 6 3 3 4 3 2 3 7 11 9 5 4 3 1 1 3 1 0 2 2 5 3 4 4 4 3 1 1 2 2 4 3 4 2 2 2 2 6 8 5 8 11 8 8 12 16 18 19 25 33 33 33 41 46 47 50 52 54
10 10 10 14 20 22 13 8 6 5 5 5 5 6 5 4 9 13 9 7 9 7 4 2 3 3 2 2 2 3 4 3 2 2 2 2 3 6 9 7 4 4 3 2 2 3 2 1 2 1 3 4 4 4 2 2 2 1 3 5 3 4 4 1 1 1 2 6 10 7 8 13 13 13 16 17 16 16 21 30 35 39 45 47 46 50 57 60
7 5 5 9 18 22 17 13 9 4 4 6 4 4 8 5 6 12 12 8 9 9 5 2 3 4 2 3 3 3 4 1 0 2 3 3 2 4 9 9 6 7 5 2 3 3 2 1 2 5 6 5 6 7 2 2 2 5 10 12 7 4 4 3 3 2 5 8 10 8 10 17 17 16 17 18 17 17 18 23 31 38 42 45 50 59 66 67
8 3 6 7 9 15 14 12 11 6 4 8 4 3 9 9 2 4 9 8 8 9 5 2 5 4 4 6 4 3 4 1 1 2 2 2 1 1 6 8 6 6 4 3 5 4 4 1 3 6 9 7 7 10 5 3 1 6 11 16 13 7 5 3 3 6 7 6 10 11 13 17 17 17 18 19 18 16 17 21 28 34 38 45 56 63 66 68
13 6 12 14 7 6 8 12 16 13 7 8 6 3 6 9 5 5 7 5 5 9 6 2 5 8 8 9 5 3 4 2 1 2 2 2 2 1 2 3 2 3 4 3 3 3 4 2 5 5 8 6 5 9 7 1 3 6 11 16 14 12 10 7 7 10 7 6 12 15 17 18 17 16 16 18 19 19 23 27 30 36 46 54 58 58 58 63
19 9 11 18 12 7 10 16 20 18 13 10 7 5 7 10 10 7 4 3 3 7 8 5 6 9 8 7 6 5 6 4 3 4 3 3 3 2 1 1 1 6 6 2 1 2 3 1 3 3 5 4 5 8 7 3 4 8 14 16 13 12 14 11 10 11 10 13 17 19 20 18 14 13 14 20 27 31 34 34 32 39 53 59 56 52 54 60
28 21 15 15 11 8 10 14 16 13 12 11 8 7 9 11 13 8 5 6 6 3 7 8 7 8 7 7 8 7 7 8 5 5 7 5 3 3 2 1 3 5 4 1 1 0 1 0 1 0 3 4 6 7 6 4 5 10 15 15 12 13 12 10 9 8 8 13 17 18 18 14 11 12 16 26 36 36 34 32 31 40 53 55 50 47 51 58
39 34 25 15 7 8 11 8 9 8 7 9 10 8 8 11 14 10 4 8 11 6 7 11 7 6 5 7 9 8 7 9 5 6 13 10 5 5 3 3 7 6 3 2 1 0 1 1 1 3 2 3 4 4 3 4 5 11 14 14 13 12 8 7 7 5 6 11 15 15 13 11 11 14 18 26 32 30 28 30 34 44 52 50 47 48 53 58
43 37 33 21 9 10 12 5 5 9 7 9 12 10 9 11 12 12 5 7 12 10 9 12 10 6 4 7 11 11 9 10 6 7 15 11 5 6 4 5 9 7 4 4 1 0 2 1 1 2 1 3 2 3 1 1 1 8 10 9 10 10 8 9 8 6 7 9 9 9 10 11 13 15 17 21 23 24 28 33 38 44 44 39 42 49 54 58
Wind_Direction
22 21 19 18 15 13 11 10 12 12 13 12 13 12 11 8 5 4 2 359 357 357 356 355 356 356 358 7 32 118 113 93 77 52 62 61 50 31 9 355 351 347 347 348 334 310 286 273 285 318 341 334 353 13 34 44 53 110 106 83 203 181 195 186 184 197 210 297 292 304 328 326 298 308 314 311 295 286 293 289 286 282 283 287 295 306 311 314
20 19 16 14 13 11 9 9 9 10 11 11 10 9 9 6 3 1 359 357 355 354 355 354 353 353 356 359 32 153 148 124 64 38 51 57 44 17 359 348 348 347 348 351 342 318 290 289 299 317 333 330 350 8 51 46 28 81 114 105 239 197 208 196 185 195 204 291 302 305 316 306 288 305 324 308 298 305 304 300 303 305 309 314 314 314 314 313
18 15 13 11 9 8 6 6 6 7 7 7 7 6 6 4 1 359 358 356 353 351 352 354 353 352 353 352 15 177 174 142 26 31 44 57 36 2 352 348 353 352 355 354 347 338 307 302 309 320 328 319 346 359 37 27 10 78 110 178 243 214 239 237 225 235 246 284 301 301 309 298 293 305 312 298 310 308 289 297 308 313 317 321 321 317 314 314
15 12 9 7 6 5 3 1 2 3 4 4 4 3 2 1 359 357 357 355 351 350 350 352 355 352 352 356 4 193 172 121 31 33 40 51 13 347 350 351 355 354 353 350 344 335 312 310 313 323 330 316 348 353 19 13 7 139 146 197 227 177 274 264 250 265 268 280 280 289 304 297 299 304 285 296 329 303 287 302 306 305 311 318 321 320 318 319
11 8 6 4 3 2 360 358 358 359 0 0 1 2 359 358 357 355 354 352 350 351 349 350 354 353 357 9 5 174 163 112 17 23 19 18 355 339 345 343 343 344 344 345 346 335 321 322 320 334 347 335 357 4 7 0 12 189 225 228 235 176 256 283 281 289 277 282 284 291 299 293 300 299 280 269 232 278 299 312 311 311 317 321 321 322 323 325
4 3 2 1 360 359 357 356 355 356 356 357 358 359 358 356 354 352 350 350 350 351 349 349 354 357 12 39 39 144 148 100 16 16 6 354 344 329 334 334 334 338 345 348 344 339 331 330 334 349 358 0 25 13 341 339 7 294 270 251 267 244 240 279 293 292 284 283 281 281 290 295 300 299 289 237 234 283 308 320 322 328 333 330 325 325 327 334
357 357 358 357 357 356 355 355 354 353 353 354 355 355 357 354 352 349 348 350 349 350 350 350 356 5 47 72 79 110 111 91 72 33 358 336 331 324 331 336 337 338 344 344 335 339 334 333 346 359 3 11 19 292 324 316 273 198 270 278 294 272 245 268 285 288 286 275 274 281 289 293 287 293 306 263 269 297 321 334 336 337 337 331 328 328 328 333
350 352 353 354 354 354 354 354 354 354 352 353 352 353 355 352 350 346 347 351 348 349 350 352 1 16 77 93 87 84 76 72 64 23 349 336 335 337 341 345 346 343 345 346 343 348 342 341 352 354 3 28 294 271 318 312 284 171 238 287 307 296 281 287 298 295 288 273 275 282 276 285 287 288 298 292 296 317 336 336 336 335 334 332 328 327 327 326
345 347 349 351 352 353 353 353 354 354 352 353 352 352 352 350 349 344 346 350 347 348 349 355 8 30 78 114 86 68 56 53 43 20 3 348 349 358 9 11 8 5 4 2 355 358 356 354 356 345 293 255 296 287 19 2 301 204 255 295 303 298 299 308 310 305 306 288 252 233 244 283 299 311 290 293 336 343 334 333 335 332 330 330 327 326 325 321
340 342 345 348 350 351 351 351 353 353 353 354 354 353 350 348 348 343 345 349 347 347 349 357 18 44 56 37 103 82 60 49 39 27 20 12 14 21 34 32 24 17 11 9 2 8 14 6 355 341 285 255 266 263 188 118 295 272 293 301 296 295 301 313 313 328 338 313 195 176 241 277 297 336 265 293 354 338 330 332 334 333 330 331 330 328 323 319
336 338 342 346 349 349 349 350 352 353 354 355 355 354 349 347 347 344 344 348 348 347 348 358 30 64 64 70 88 91 73 57 47 42 35 32 45 48 47 35 25 17 8 7 9 18 20 6 355 350 316 295 296 255 214 234 289 297 313 304 300 307 311 324 336 359 351 330 187 202 243 283 302 291 252 311 339 333 330 331 335 339 338 341 337 332 329 329
332 333 340 345 346 346 346 348 351 353 354 355 355 354 349 346 345 344 344 348 348 346 346 355 25 113 72 60 77 83 76 66 55 52 43 40 54 56 45 32 23 16 5 7 18 23 14 0 2 354 324 308 311 4 258 286 296 291 326 306 312 333 326 341 35 1 352 338 300 302 231 305 292 220 284 320 332 331 332 333 339 343 343 346 343 341 345 351
328 330 338 342 343 343 344 346 349 351 352 355 354 353 349 344 344 344 345 349 349 346 344 348 334 201 127 50 71 79 80 72 58 50 40 36 42 46 41 29 23 15 5 12 23 21 8 2 11 1 354 323 293 343 297 303 306 280 357 127 334 352 316 333 357 348 350 341 351 1 313 296 227 246 298 320 331 336 336 336 341 342 343 349 353 3 17 31
324 329 336 339 341 341 342 345 346 348 351 354 353 353 348 342 344 343 346 351 348 345 342 346 358 189 145 84 81 73 81 73 53 42 36 35 34 38 38 26 23 14 5 15 25 20 11 11 24 30 45 2 301 298 297 322 353 287 349 80 26 3 283 322 333 340 359 337 354 4 300 284 267 276 306 326 340 344 337 335 338 338 346 3 24 43 52 51
322 328 333 337 339 339 341 343 343 347 350 350 351 353 347 342 345 343 349 353 347 344 340 343 357 180 132 99 85 57 62 51 36 32 29 31 31 38 39 23 22 14 5 17 30 25 15 14 35 46 42 353 348 340 324 348 6 17 5 330 352 352 291 316 322 28 35 318 354 9 299 296 296 286 314 334 343 345 337 334 334 341 3 35 52 55 51 42
321 327 332 335 337 337 340 341 341 344 347 348 349 351 348 344 346 342 350 352 346 343 339 343 351 185 124 76 82 37 26 23 26 25 21 22 26 33 35 23 21 12 2 19 34 27 14 14 48 48 44 27 19 43 37 10 346 15 30 312 297 325 316 320 322 92 47 343 355 21 273 296 300 302 321 333 340 340 339 335 335 356 38 54 49 46 42 36
320 326 332 335 335 335 339 341 341 341 345 347 346 348 349 348 349 344 351 352 347 341 336 6 46 150 79 39 60 7 6 27 25 16 11 15 22 26 25 21 24 12 357 13 28 22 13 16 65 47 50 59 37 61 43 12 328 323 11 323 290 298 301 316 310 9 29 11 328 313 265 277 284 304 322 329 341 344 341 340 351 28 56 49 41 38 35 34
319 325 332 334 334 335 339 341 339 339 343 345 344 348 349 348 350 349 352 350 345 343 336 30 22 106 70 34 24 351 4 65 31 13 6 9 17 20 17 14 20 11 358 11 22 19 11 10 87 56 24 28 17 58 55 297 251 270 298 303 296 282 242 276 290 322 10 2 297 306 300 294 293 310 326 326 345 353 338 346 27 52 50 41 36 34 33 32
318 325 331 334 335 335 337 340 339 339 341 342 343 349 349 348 353 1 354 351 350 354 332 324 351 194 198 21 22 6 55 96 32 15 7 10 12 10 12 7 10 15 15 12 3 14 11 3 58 42 359 343 344 77 163 216 211 240 260 259 287 296 265 240 257 304 350 333 311 317 312 303 305 324 333 327 347 356 336 7 58 49 41 39 32 33 33 31
316 324 329 334 335 334 337 339 339 339 339 341 346 352 355 356 3 351 347 352 350 340 315 309 341 147 179 24 29 38 89 115 31 15 7 8 6 3 7 359 359 20 33 355 326 2 22 21 57 77 303 300 280 207 206 215 208 251 278 274 285 294 295 293 277 317 3 343 312 318 315 301 305 329 330 331 347 347 341 43 68 42 37 38 32 36 34 30
316 323 327 333 335 334 335 337 339 338 339 343 349 357 8 12 24 321 336 345 332 325 318 308 27 108 122 39 30 42 81 162 29 10 7 6 6 2 360 2 10 17 6 297 293 338 27 29 245 220 232 277 268 190 173 240 279 304 302 309 314 294 297 303 289 346 20 4 309 317 315 298 306 333 322 335 350 347 30 63 61 39 36 34 34 38 33 26
314 320 326 331 333 333 333 335 337 336 338 343 349 1 12 14 11 335 328 313 317 321 282 161 101 96 91 48 27 33 51 86 30 5 8 7 12 14 359 19 58 6 331 348 357 355 9 327 245 232 199 117 64 102 91 33 319 313 303 325 322 310 311 303 287 348 16 22 305 312 306 294 310 333 314 352 38 41 63 62 43 34 30 32 36 34 28 21
310 318 324 328 330 330 331 333 333 333 338 342 349 359 2 1 357 346 335 292 306 317 178 185 142 93 57 50 23 21 38 55 24 4 8 8 20 34 32 38 50 347 349 15 44 26 338 268 248 220 141 95 41 30 56 39 353 309 301 322 310 330 354 313 318 330 322 178 256 291 288 287 310 331 307 23 74 63 65 54 34 30 31 36 36 29 25 19
308 316 320 326 327 325 328 329 329 331 336 342 347 353 355 355 354 347 337 290 285 301 202 189 178 42 33 31 15 18 57 62 34 14 13 18 33 40 46 60 29 25 318 339 64 87 265 268 287 61 81 75 13 340 31 26 338 306 273 297 317 329 337 297 312 326 319 283 184 310 306 287 317 348 311 2 66 63 55 44 30 26 31 34 27 23 21 15
307 312 316 323 322 322 326 325 327 330 333 339 342 347 352 350 349 347 344 333 284 303 218 204 261 285 332 4 9 10 70 69 36 22 19 26 33 27 52 109 46 358 238 258 5 291 270 278 341 48 41 53 53 342 353 34 328 326 263 230 333 319 314 307 316 330 326 318 97 39 330 290 319 349 311 338 68 67 45 44 30 20 26 28 21 19 14 7
304 308 313 319 319 320 322 322 325 325 328 335 338 344 348 344 347 349 356 37 302 295 172 200 229 201 279 344 9 4 15 55 28 24 30 26 17 24 48 154 61 319 223 235 341 284 272 314 49 73 53 46 52 349 284 187 41 329 206 140 342 317 316 315 318 332 312 293 334 79 312 285 311 328 289 343 79 76 40 44 27 18 23 24 20 17 9 1
299 305 310 315 317 317 317 319 320 319 324 331 336 342 340 340 347 348 4 28 321 258 170 207 198 203 266 339 10 14 340 331 9 31 37 26 8 16 315 296 30 272 177 101 345 279 252 331 21 53 64 48 35 350 277 156 104 263 213 41 351 326 315 309 307 298 262 289 318 130 191 272 297 284 286 356 62 58 30 31 20 13 12 13 17 9 1 355
294 301 306 310 313 311 312 313 312 316 322 325 333 337 337 341 343 358 42 23 305 169 163 242 194 203 274 354 13 60 34 331 23 25 26 27 6 7 288 272 194 252 220 131 272 271 228 353 28 47 55 37 319 273 270 186 110 267 277 342 316 299 292 289 279 271 269 313 322 237 195 266 278 288 337 350 44 40 17 17 8 3 3 6 7 359 353 349
291 297 302 306 307 306 307 308 309 315 316 321 330 331 336 337 335 44 70 273 305 120 175 246 192 239 329 339 359 65 70 27 23 340 3 39 8 15 317 266 169 206 2 139 221 254 265 60 90 94 88 211 234 262 281 87 83 284 304 328 300 279 262 256 250 265 308 326 288 264 173 309 288 295 331 355 46 29 359 5 355 355 2 5 1 353 348 346
288 295 299 301 301 301 302 304 308 311 311 318 326 332 336 331 5 59 4 252 305 156 204 238 231 290 343 350 340 20 71 64 344 347 356 32 14 26 80 212 89 105 15 30 217 265 297 8 110 96 121 196 159 89 65 82 40 303 353 358 330 311 260 232 245 283 336 297 208 205 96 46 303 308 66 79 69 33 353 358 350 355 3 1 355 348 345 343
286 291 294 296 295 297 298 300 306 305 307 316 326 334 334 332 78 94 252 244 60 324 342 321 288 2 37 58 306 339 41 8 354 16 9 2 9 19 49 96 28 39 8 8 354 302 330 35 91 69 60 147 116 79 24 23 3 11 37 5 335 325 307 329 350 19 312 261 189 89 26 14 282 289 95 120 67 35 11 358 349 355 0 353 348 344 342 340
282 285 289 291 290 293 293 295 301 300 303 317 329 336 347 3 25 182 229 326 7 307 60 275 304 50 70 59 264 293 16 336 6 54 59 34 38 18 30 92 8 9 343 334 347 330 340 359 330 45 54 46 96 84 344 357 20 26 23 14 15 345 333 334 326 309 251 256 234 33 7 322 263 271 79 85 36 12 358 358 357 0 357 349 344 340 337 334
277 280 284 286 286 288 287 288 293 292 299 314 325 352 56 53 278 221 226 317 308 311 30 57 348 96 103 346 276 268 45 239 11 47 131 96 76 53 345 337 134 55 274 243 13 351 330 299 324 24 19 13 77 98 351 337 44 42 3 53 77 3 333 315 298 301 277 272 285 322 324 273 267 277 114 116 44 353 358 2 3 0 352 343 337 333 330 329
272 276 279 280 282 282 280 282 284 286 294 303 326 23 50 267 250 223 231 254 261 359 21 45 8 3 86 260 262 243 117 253 41 38 15 52 71 98 313 325 15 89 163 184 205 152 277 279 331 35 287 17 59 127 174 168 110 165 188 127 128 151 240 269 275 304 315 299 302 318 299 250 308 199 161 156 356 3 2 359 358 352 341 333 329 327 326 326
271 273 275 277 278 276 274 273 275 280 281 287 57 85 226 246 250 236 227 240 280 338 340 349 34 342 304 272 293 249 179 248 41 64 25 45 136 144 153 292 338 85 134 117 256 146 147 258 277 352 140 104 52 241 178 119 112 220 156 98 117 180 189 231 261 250 285 292 297 316 267 255 312 291 18 8 1 3 358 350 347 340 332 328 326 325 326 325
275 275 275 275 274 271 267 265 267 270 256 177 93 198 218 227 226 204 197 188 147 159 340 329 208 221 293 283 331 1 153 221 5 45 328 111 144 149 152 203 274 199 159 153 214 118 59 269 249 255 62 66 338 266 84 92 150 211 67 152 234 193 151 140 308 301 293 276 287 309 284 290 326 329 358 4 354 352 347 342 339 332 330 329 326 325 325 324
280 280 278 274 270 266 261 259 259 256 230 154 159 227 217 219 214 189 171 154 142 127 88 327 233 193 262 268 265 289 126 271 337 47 256 225 142 153 146 183 205 202 214 168 168 168 138 257 241 202 119 11 123 107 77 53 85 104 150 223 245 60 116 120 70 327 306 267 280 297 290 300 315 315 360 356 341 340 338 335 332 329 330 327 323 324 323 322
287 287 282 272 265 261 255 253 250 236 200 153 212 243 212 204 209 177 161 154 136 109 124 230 234 180 209 243 241 219 157 225 247 45 233 219 192 153 137 175 199 202 269 194 151 179 128 294 278 191 141 216 116 98 65 24 55 103 205 219 89 75 306 51 92 267 274 273 287 297 296 301 276 248 352 340 331 333 332 331 329 326 327 324 321 321 321 320
293 290 280 268 259 255 249 247 238 207 177 170 220 239 211 218 231 198 181 165 133 132 171 228 241 213 183 180 191 199 169 189 186 127 198 187 177 147 133 161 187 202 313 147 145 217 134 122 281 238 188 197 39 67 209 341 24 41 22 29 65 136 193 225 144 179 243 273 286 303 305 302 159 348 336 327 323 330 331 329 324 320 322 320 318 317 317 317
291 281 266 260 251 247 241 234 215 179 173 202 202 213 213 226 238 208 195 191 171 178 208 223 220 228 210 178 195 188 160 190 177 172 211 189 121 155 152 158 166 189 328 73 117 93 66 122 205 240 263 2 348 244 182 178 167 43 42 39 349 1 103 220 229 159 155 223 238 303 294 279 80 2 324 314 317 326 329 323 317 317 317 316 316 315 314 313
278 264 256 249 240 237 222 205 191 172 185 228 205 222 231 190 202 198 196 201 206 211 207 191 195 206 185 179 213 175 162 202 183 183 226 197 154 179 177 168 159 161 102 57 106 145 127 156 189 241 293 275 238 239 197 171 158 146 141 160 195 203 58 355 293 222 127 154 188 256 278 274 58 6 303 308 316 319 324 318 312 313 313 313 314 313 311 311
251 241 253 242 232 223 201 185 191 175 188 222 212 213 204 179 185 191 190 198 214 220 203 188 196 198 185 191 196 167 166 198 190 194 229 209 200 179 166 169 175 176 157 130 212 178 130 107 193 262 252 225 276 295 212 152 140 145 155 147 166 171 121 119 265 277 313 260 223 222 264 275 13 3 287 307 313 313 317 313 309 311 312 312 312 311 312 312
228 236 247 241 224 204 190 195 234 197 216 231 220 213 204 192 182 178 183 192 203 201 191 197 197 199 206 189 169 172 179 189 187 182 185 218 214 169 161 168 182 177 153 136 215 149 115 84 65 281 277 49 4 351 15 69 98 134 225 126 139 179 197 195 221 255 288 272 251 235 260 273 330 331 295 305 309 310 314 314 312 311 311 312 312 312 313 313
236 242 239 233 214 194 192 220 213 211 234 232 232 229 217 213 198 184 187 196 193 173 166 204 202 197 206 168 152 180 188 191 191 175 156 170 181 165 160 164 181 182 171 197 174 145 164 122 89 337 320 359 33 11 351 344 27 193 256 185 160 197 240 232 226 251 272 255 246 243 263 278 306 313 302 305 307 308 311 314 315 313 312 313 314 315 316 317
237 240 226 214 203 194 206 232 210 207 218 207 231 224 202 227 216 207 207 202 195 182 160 197 187 151 158 146 128 188 197 201 199 160 140 153 171 180 178 176 189 210 226 231 164 137 165 220 125 130 283 281 287 299 289 272 280 266 259 252 216 205 221 221 2 252 245 262 261 253 266 282 296 306 304 306 310 309 309 314 318 316 315 316 318 319 319 318
209 218 207 191 198 205 224 234 217 211 193 192 234 215 190 217 227 210 209 209 205 188 152 142 151 117 130 162 155 205 211 225 52 140 150 164 181 216 209 208 219 240 259 225 168 138 101 278 197 181 206 224 248 269 299 67 309 292 293 288 277 230 209 152 111 222 251 281 281 268 271 286 298 308 308 309 313 312 310 315 319 318 318 322 322 320 318 316
208 206 185 171 201 219 232 236 220 217 182 180 196 186 193 208 224 199 205 210 204 183 157 142 165 165 187 171 164 207 194 121 79 149 140 161 168 245 221 226 247 250 238 171 172 139 86 288 244 215 228 234 243 265 290 57 276 275 284 285 287 292 270 193 190 246 258 281 285 283 288 292 299 307 309 310 312 312 314 317 320 321 322 323 320 317 316 316
218 227 199 197 205 205 217 223 212 209 201 188 192 168 182 198 197 192 200 199 189 182 179 206 201 202 191 167 165 187 163 142 208 165 117 136 152 25 225 237 254 184 155 125 158 122 93 238 242 237 249 249 248 265 273 244 251 262 264 272 285 294 284 265 256 261 260 262 273 287 294 292 297 306 305 305 309 311 314 319 324 325 323 321 319 316 316 316
215 230 207 204 215 210 206 204 195 199 208 200 201 196 186 201 207 197 174 154 194 203 197 204 211 207 193 172 174 176 164 172 199 187 171 158 164 155 161 262 208 156 144 76 53 113 99 229 242 259 274 260 230 252 261 229 238 261 263 267 274 276 276 275 270 269 265 262 268 282 291 290 293 300 299 305 312 314 317 325 331 327 322 321 319 317 317 318
217 224 209 198 220 226 201 187 178 192 209 201 211 216 197 208 214 201 173 171 182 200 200 205 200 184 186 190 189 197 192 181 175 178 172 157 166 186 184 191 151 142 141 99 20 213 141 120 163 120 306 264 217 229 242 208 220 256 266 271 275 277 280 274 265 264 264 268 278 289 294 294 297 303 309 314 317 319 322 329 333 326 321 319 317 317 319 320
226 228 219 201 210 205 190 175 162 182 207 199 207 208 197 214 212 196 199 205 198 190 188 194 182 154 178 199 199 212 200 169 152 172 171 161 156 177 183 168 154 142 148 164 145 263 191 232 38 56 343 268 184 177 220 198 214 253 264 273 276 274 274 266 257 247 254 275 291 299 301 305 310 316 317 317 320 322 324 332 331 323 320 319 318 320 321 320
225 226 221 211 209 194 185 166 157 189 208 198 200 202 201 213 201 181 200 229 210 209 201 187 171 150 171 200 207 211 184 153 124 148 167 162 134 146 159 162 159 151 144 153 154 161 151 156 88 77 317 268 134 117 192 161 238 264 256 245 245 250 261 271 266 245 247 270 290 297 299 302 309 319 322 321 325 324 323 330 328 317 314 318 321 320 319 320
Height
1563 1562 1561 1560 1559 1558 1556 1555 1553 1551 1549 1548 1546 1544 1542 1540 1538 1536 1534 1532 1530 1528 1525 1523 1521 1520 1519 1518 1517 1516 1516 1516 1516 1516 1515 1516 1517 1517 1517 1516 1515 1514 1513 1512 1511 1510 1509 1509 1508 1507 1507 1506 1505 1505 1505 1505 1506 1506 1509 1513 1512 1516 1514 1508 1509 1508 1506 1502 1500 1499 1500 1501 1495 1493 1494 1493 1492 1489 1487 1485 1485 1486 1484 1482 1482 1482 1481 1479
1563 1562 1561 1560 1559 1558 1556 1555 1553 1551 1550 1548 1546 1544 1542 1540 1538 1536 1534 1532 1530 1527 1525 1523 1520 1519 1518 1517 1517 1516 1515 1516 1516 1515 1516 1517 1517 1517 1517 1516 1514 1513 1513 1512 1511 1510 1509 1508 1507 1507 1506 1505 1505 1505 1505 1506 1506 1507 1512 1513 1510 1511 1507 1503 1504 1504 1505 1503 1500 1499 1499 1500 1494 1492 1494 1492 1490 1490 1487 1482 1482 1482 1480 1481 1481 1480 1479 1477
1563 1562 1561 1560 1559 1558 1556 1555 1553 1551 1550 1548 1546 1544 1542 1540 1538 1536 1534 1532 1529 1527 1525 1522 1520 1518 1517 1516 1515 1515 1515 1515 1515 1516 1517 1517 1517 1517 1516 1515 1514 1513 1512 1512 1511 1510 1509 1508 1507 1507 1506 1505 1505 1505 1505 1506 1507 1508 1511 1510 1507 1506 1504 1502 1503 1503 1504 1503 1501 1499 1498 1497 1493 1492 1493 1492 1490 1488 1486 1482 1481 1481 1479 1479 1479 1478 1477 1475
1563 1562 1561 1560 1559 1557 1556 1555 1553 1551 1550 1548 1546 1544 1542 1540 1538 1536 1534 1532 1529 1527 1524 1522 1520 1517 1516 1515 1515 1514 1514 1515 1517 1518 1518 1517 1517 1517 1516 1515 1514 1513 1512 1512 1511 1510 1509 1508 1508 1507 1506 1506 1506 1505 1506 1507 1507 1509 1509 1506 1504 1505 1504 1501 1502 1503 1503 1503 1502 1499 1498 1495 1491 1491 1491 1492 1492 1484 1481 1482 1482 1481 1479 1478 1477 1476 1476 1473
1563 1562 1561 1560 1558 1557 1556 1554 1553 1551 1549 1548 1546 1544 1542 1540 1538 1536 1534 1532 1530 1527 1524 1521 1519 1517 1516 1515 1515 1514 1514 1517 1519 1519 1518 1517 1517 1516 1516 1515 1514 1513 1512 1511 1511 1510 1510 1509 1508 1508 1507 1507 1507 1506 1507 1508 1508 1508 1506 1503 1503 1504 1503 1499 1501 1502 1502 1503 1502 1500 1498 1492 1489 1490 1489 1492 1493 1484 1479 1481 1482 1481 1480 1478 1477 1475 1474 1473
1563 1562 1560 1559 1558 1557 1556 1554 1553 1551 1549 1548 1546 1545 1542 1540 1538 1536 1534 1532 1529 1527 1524 1521 1519 1517 1516 1515 1515 1514 1514 1518 1520 1518 1518 1517 1517 1516 1515 1514 1513 1513 1512 1511 1511 1510 1510 1509 1508 1508 1508 1508 1509 1508 1508 1508 1508 1507 1504 1502 1502 1502 1501 1499 1500 1501 1501 1502 1501 1499 1496 1491 1489 1488 1487 1490 1488 1482 1480 1481 1481 1482 1481 1480 1478 1475 1473 1472
1562 1561 1560 1559 1557 1556 1555 1554 1552 1551 1549 1547 1546 1544 1542 1540 1538 1536 1534 1532 1529 1527 1524 1522 1519 1518 1517 1516 1516 1515 1515 1517 1519 1518 1518 1517 1516 1516 1515 1514 1513 1512 1512 1511 1511 1510 1510 1509 1508 1508 1508 1508 1509 1509 1508 1508 1508 1508 1505 1501 1499 1499 1498 1498 1499 1500 1500 1500 1499 1498 1496 1491 1489 1487 1485 1485 1483 1481 1481 1481 1482 1482 1482 1481 1479 1477 1475 1473
1562 1561 1560 1558 1557 1556 1554 1553 1552 1550 1549 1547 1546 1544 1542 1540 1538 1536 1534 1532 1529 1526 1524 1522 1520 1519 1518 1517 1517 1516 1516 1517 1518 1518 1517 1517 1516 1515 1514 1514 1513 1512 1512 1511 1510 1510 1509 1509 1508 1508 1508 1509 1509 1508 1509 1507 1506 1508 1505 1500 1499 1496 1495 1497 1498 1498 1497 1497 1496 1497 1497 1490 1487 1487 1484 1481 1480 1480 1481 1481 1482 1482 1482 1482 1480 1478 1476 1474
1562 1561 1559 1558 1557 1555 1554 1552 1551 1550 1548 1547 1546 1543 1542 1540 1538 1536 1533 1531 1529 1526 1524 1521 1520 1519 1518 1518 1517 1516 1518 1518 1518 1518 1517 1517 1516 1515 1514 1514 1513 1512 1511 1510 1509 1509 1508 1508 1508 1508 1508 1508 1508 1508 1508 1507 1506 1506 1504 1501 1500 1494 1491 1495 1495 1495 1494 1494 1494 1495 1496 1490 1485 1486 1482 1478 1479 1479 1480 1481 1482 1482 1481 1481 1480 1479 1477 1474
1561 1560 1559 1558 1556 1555 1553 1552 1550 1549 1548 1547 1545 1543 1541 1539 1537 1535 1533 1531 1528 1525 1523 1521 1521 1519 1519 1518 1517 1517 1520 1519 1518 1518 1517 1517 1516 1515 1515 1514 1512 1511 1510 1509 1509 1508 1508 1507 1507 1507 1507 1507 1507 1508 1508 1507 1506 1505 1504 1501 1499 1494 1490 1493 1492 1493 1493 1490 1491 1493 1493 1488 1485 1486 1481 1477 1478 1478 1478 1479 1481 1480 1479 1479 1479 1478 1476 1472
1561 1560 1559 1558 1556 1555 1553 1551 1550 1548 1547 1546 1545 1543 1540 1539 1537 1535 1533 1531 1528 1525 1523 1521 1521 1520 1519 1518 1517 1519 1521 1520 1519 1519 1518 1517 1517 1516 1515 1514 1512 1511 1509 1508 1508 1508 1507 1507 1507 1506 1506 1507 1507 1507 1507 1507 1506 1505 1504 1500 1498 1493 1489 1490 1491 1491 1490 1488 1489 1491 1490 1487 1486 1486 1479 1476 1478 1478 1477 1477 1478 1477 1476 1477 1476 1475 1473 1471
1561 1560 1559 1557 1556 1554 1553 1551 1549 1548 1547 1545 1544 1542 1540 1538 1536 1535 1532 1530 1527 1524 1522 1521 1520 1520 1519 1518 1518 1520 1521 1521 1520 1519 1519 1518 1517 1516 1515 1514 1512 1511 1509 1509 1508 1508 1507 1506 1506 1506 1507 1507 1507 1507 1506 1506 1506 1504 1504 1501 1498 1495 1489 1487 1489 1490 1488 1488 1488 1488 1487 1485 1484 1480 1476 1477 1478 1478 1477 1475 1475 1475 1474 1475 1473 1472 1472 1471
1560 1559 1558 1557 1555 1554 1552 1551 1549 1548 1547 1545 1543 1541 1539 1537 1536 1534 1532 1529 1526 1524 1521 1520 1520 1519 1519 1519 1520 1521 1521 1521 1521 1520 1519 1518 1517 1516 1515 1514 1513 1511 1510 1509 1508 1508 1507 1506 1506 1506 1507 1507 1507 1507 1505 1505 1504 1502 1504 1503 1501 1500 1491 1485 1488 1488 1487 1487 1486 1487 1487 1483 1479 1476 1475 1479 1479 1477 1475 1473 1474 1473 1472 1473 1471 1471 1470 1470
1560 1559 1558 1556 1555 1554 1552 1550 1549 1548 1546 1544 1543 1541 1538 1537 1535 1533 1531 1528 1526 1523 1521 1520 1519 1519 1519 1520 1521 1522 1522 1522 1521 1520 1519 1518 1517 1516 1515 1514 1513 1511 1510 1509 1509 1508 1507 1507 1507 1506 1507 1508 1507 1507 1506 1506 1504 1503 1503 1503 1506 1506 1494 1487 1489 1488 1487 1487 1484 1486 1487 1480 1474 1474 1476 1478 1480 1479 1475 1473 1473 1472 1472 1472 1471 1470 1470 1470
1559 1558 1557 1555 1554 1553 1552 1550 1549 1547 1546 1544 1542 1540 1538 1536 1534 1532 1530 1528 1525 1522 1521 1519 1519 1520 1520 1521 1522 1522 1522 1522 1521 1520 1519 1518 1517 1516 1515 1514 1513 1511 1510 1509 1509 1508 1508 1507 1507 1507 1507 1507 1507 1507 1506 1505 1505 1507 1505 1503 1509 1510 1499 1491 1491 1490 1489 1488 1485 1486 1485 1476 1469 1470 1474 1479 1480 1480 1478 1475 1473 1472 1473 1472 1471 1471 1470 1471
1559 1558 1556 1554 1553 1552 1551 1550 1548 1547 1545 1543 1541 1539 1537 1536 1533 1531 1529 1527 1525 1522 1520 1519 1519 1520 1520 1521 1522 1522 1522 1522 1521 1520 1519 1518 1517 1516 1515 1514 1512 1511 1510 1509 1509 1509 1508 1507 1507 1508 1508 1508 1509 1509 1505 1505 1508 1511 1512 1509 1508 1510 1505 1496 1490 1491 1492 1489 1486 1488 1489 1479 1466 1465 1471 1477 1479 1478 1478 1476 1474 1474 1474 1473 1472 1471 1471 1471
1558 1557 1556 1554 1552 1551 1550 1549 1547 1546 1544 1542 1540 1538 1537 1535 1533 1530 1529 1527 1524 1522 1520 1519 1520 1520 1521 1522 1522 1522 1522 1522 1521 1520 1519 1518 1516 1515 1515 1513 1512 1511 1509 1509 1509 1508 1508 1507 1508 1508 1509 1511 1513 1509 1506 1513 1516 1514 1516 1514 1510 1511 1510 1501 1492 1491 1493 1491 1488 1486 1488 1480 1468 1468 1472 1475 1477 1476 1474 1474 1474 1475 1475 1474 1473 1472 1471 1471
1557 1557 1555 1553 1552 1550 1550 1548 1547 1545 1543 1542 1539 1537 1535 1534 1532 1530 1528 1526 1523 1521 1519 1519 1520 1522 1523 1522 1522 1522 1521 1522 1521 1520 1519 1517 1516 1515 1514 1513 1512 1511 1509 1508 1508 1508 1508 1507 1507 1508 1509 1512 1514 1514 1515 1520 1521 1518 1518 1517 1514 1512 1511 1508 1499 1493 1493 1493 1490 1485 1480 1473 1465 1470 1474 1474 1477 1477 1474 1474 1474 1475 1475 1474 1474 1473 1472 1471
1557 1556 1554 1553 1551 1550 1549 1548 1546 1544 1542 1540 1538 1536 1534 1532 1530 1528 1528 1525 1522 1521 1521 1520 1521 1523 1524 1522 1521 1521 1521 1521 1521 1520 1518 1517 1516 1514 1513 1512 1512 1511 1509 1508 1508 1509 1509 1507 1508 1511 1513 1514 1516 1519 1519 1520 1519 1518 1519 1519 1517 1512 1508 1508 1504 1498 1496 1492 1487 1484 1480 1468 1461 1468 1472 1470 1475 1478 1475 1475 1477 1476 1476 1475 1475 1474 1473 1472
1556 1555 1553 1552 1551 1549 1548 1547 1545 1543 1541 1539 1536 1533 1531 1530 1528 1527 1527 1524 1523 1524 1524 1523 1523 1522 1522 1521 1521 1520 1520 1520 1519 1519 1517 1516 1515 1514 1513 1512 1511 1511 1511 1513 1512 1511 1511 1511 1514 1517 1518 1518 1518 1520 1519 1519 1519 1518 1517 1517 1517 1513 1505 1502 1502 1501 1500 1496 1487 1485 1482 1466 1461 1469 1470 1469 1473 1474 1474 1476 1479 1478 1477 1477 1476 1476 1475 1473
1555 1554 1552 1551 1550 1549 1548 1546 1545 1543 1540 1538 1535 1533 1532 1532 1531 1530 1528 1525 1524 1523 1523 1523 1523 1522 1521 1520 1519 1518 1518 1518 1518 1518 1516 1516 1514 1513 1513 1513 1513 1513 1515 1517 1514 1513 1512 1513 1517 1519 1519 1519 1519 1520 1519 1519 1518 1516 1516 1516 1515 1514 1506 1499 1502 1503 1502 1502 1491 1486 1483 1461 1458 1471 1468 1469 1474 1472 1474 1477 1479 1479 1478 1478 1477 1476 1476 1474
1554 1552 1551 1550 1549 1548 1547 1545 1544 1542 1540 1538 1536 1535 1534 1534 1533 1532 1530 1526 1523 1522 1522 1523 1522 1521 1520 1519 1518 1517 1517 1517 1517 1517 1516 1515 1513 1513 1514 1515 1517 1518 1519 1518 1515 1517 1516 1514 1517 1519 1520 1520 1519 1520 1520 1519 1518 1516 1515 1516 1515 1513 1508 1498 1497 1501 1504 1507 1494 1488 1484 1459 1458 1473 1466 1468 1475 1473 1477 1478 1479 1479 1477 1478 1477 1476 1475 1472
1552 1551 1550 1549 1548 1547 1546 1545 1543 1542 1540 1538 1537 1536 1534 1533 1532 1531 1531 1528 1523 1521 1522 1522 1522 1521 1520 1519 1518 1517 1515 1516 1517 1516 1516 1515 1514 1515 1516 1517 1519 1520 1520 1519 1519 1523 1521 1515 1516 1519 1519 1517 1517 1519 1520 1518 1518 1517 1515 1517 1516 1515 1517 1507 1497 1497 1499 1503 1496 1490 1486 1464 1460 1470 1463 1467 1474 1474 1480 1479 1478 1479 1477 1478 1477 1476 1474 1471
1551 1550 1549 1548 1548 1546 1545 1544 1543 1541 1540 1538 1537 1536 1534 1533 1531 1530 1530 1528 1525 1522 1521 1521 1521 1520 1519 1518 1517 1516 1516 1517 1518 1518 1517 1516 1516 1516 1517 1518 1520 1520 1521 1521 1522 1524 1521 1516 1516 1519 1518 1516 1517 1517 1518 1518 1517 1518 1517 1518 1520 1518 1522 1518 1508 1500 1490 1493 1495 1491 1486 1465 1459 1469 1463 1464 1473 1476 1480 1478 1478 1479 1478 1479 1476 1474 1473 1471
1549 1549 1548 1547 1547 1545 1544 1543 1542 1541 1540 1538 1537 1535 1534 1533 1531 1530 1529 1528 1525 1521 1520 1521 1520 1519 1519 1518 1517 1516 1516 1517 1518 1519 1518 1517 1517 1518 1518 1519 1519 1519 1522 1522 1522 1522 1518 1517 1517 1517 1517 1517 1518 1517 1518 1519 1518 1518 1520 1522 1523 1521 1521 1518 1514 1508 1495 1491 1493 1495 1493 1468 1456 1469 1466 1463 1474 1479 1481 1480 1480 1481 1479 1478 1475 1474 1473 1471
1548 1547 1547 1546 1545 1544 1544 1542 1542 1541 1539 1539 1537 1535 1534 1532 1531 1530 1529 1530 1526 1520 1520 1521 1520 1519 1518 1517 1517 1515 1516 1517 1519 1518 1518 1518 1518 1518 1518 1519 1519 1519 1521 1522 1521 1520 1518 1518 1518 1517 1518 1518 1520 1519 1519 1520 1519 1520 1522 1525 1525 1522 1521 1518 1514 1514 1505 1495 1491 1498 1504 1482 1462 1469 1466 1465 1476 1481 1481 1481 1482 1482 1480 1479 1477 1475 1474 1472
1546 1546 1545 1545 1544 1543 1542 1541 1541 1540 1539 1539 1536 1535 1534 1532 1532 1529 1528 1533 1529 1520 1520 1521 1519 1519 1518 1517 1516 1515 1516 1517 1518 1518 1518 1518 1518 1518 1518 1518 1519 1519 1521 1522 1520 1519 1518 1517 1517 1518 1520 1520 1521 1521 1520 1521 1521 1520 1523 1525 1523 1520 1519 1517 1516 1516 1508 1500 1496 1496 1501 1492 1474 1470 1465 1465 1476 1481 1480 1482 1482 1482 1481 1480 1479 1477 1475 1473
1545 1545 1544 1544 1543 1542 1541 1541 1541 1540 1539 1538 1536 1536 1533 1532 1533 1528 1533 1540 1530 1518 1519 1519 1518 1518 1517 1517 1516 1515 1516 1516 1517 1517 1517 1518 1518 1517 1517 1517 1519 1519 1520 1522 1519 1518 1518 1517 1518 1520 1521 1522 1521 1522 1522 1521 1520 1519 1522 1523 1521 1519 1518 1517 1517 1513 1507 1507 1504 1494 1494 1497 1481 1469 1468 1467 1475 1483 1482 1483 1483 1482 1482 1480 1479 1478 1475 1473
1543 1543 1542 1542 1541 1541 1541 1540 1540 1539 1539 1537 1537 1535 1533 1533 1531 1529 1539 1543 1526 1516 1519 1518 1517 1518 1517 1517 1516 1515 1516 1516 1517 1517 1517 1518 1517 1517 1517 1517 1519 1519 1519 1521 1519 1517 1518 1518 1520 1520 1521 1521 1521 1523 1523 1521 1521 1521 1521 1519 1519 1519 1516 1516 1514 1508 1507 1508 1505 1494 1491 1497 1483 1467 1471 1475 1480 1488 1486 1484 1485 1482 1482 1480 1478 1477 1474 1471
1541 1541 1541 1541 1540 1540 1539 1539 1539 1538 1538 1537 1536 1534 1533 1533 1531 1537 1547 1539 1521 1518 1519 1516 1517 1518 1517 1517 1516 1516 1517 1517 1517 1517 1516 1517 1517 1517 1517 1518 1518 1519 1520 1521 1520 1519 1518 1518 1519 1520 1521 1521 1521 1524 1523 1523 1523 1520 1519 1519 1518 1516 1512 1514 1512 1510 1511 1503 1499 1497 1493 1503 1495 1472 1473 1483 1487 1491 1488 1485 1483 1480 1480 1478 1477 1475 1472 1470
1539 1539 1539 1539 1538 1538 1538 1538 1538 1537 1537 1536 1535 1534 1533 1532 1534 1545 1546 1529 1519 1521 1517 1517 1520 1519 1518 1518 1517 1516 1517 1518 1518 1517 1517 1518 1518 1517 1517 1518 1518 1518 1519 1519 1520 1519 1517 1517 1519 1520 1522 1520 1520 1523 1524 1524 1521 1518 1522 1522 1519 1516 1511 1511 1512 1514 1510 1493 1490 1495 1492 1504 1501 1476 1476 1487 1486 1487 1487 1485 1483 1480 1480 1478 1476 1474 1472 1471
1537 1537 1537 1537 1537 1536 1536 1537 1536 1536 1536 1535 1535 1534 1533 1537 1540 1540 1533 1521 1520 1521 1517 1519 1522 1520 1521 1521 1518 1519 1519 1518 1518 1519 1520 1522 1523 1525 1524 1525 1525 1521 1518 1520 1522 1520 1517 1519 1523 1522 1521 1521 1520 1521 1523 1523 1522 1521 1525 1526 1526 1527 1520 1515 1512 1511 1504 1486 1483 1493 1497 1502 1491 1474 1478 1484 1482 1485 1485 1484 1482 1479 1478 1475 1473 1472 1470 1469
1535 1535 1535 1535 1534 1535 1535 1535 1535 1535 1535 1534 1536 1533 1536 1547 1544 1532 1526 1522 1520 1521 1520 1521 1523 1522 1523 1519 1518 1521 1520 1519 1519 1520 1522 1523 1525 1530 1531 1532 1532 1527 1523 1526 1529 1526 1520 1521 1524 1522 1521 1521 1519 1521 1524 1525 1526 1528 1529 1529 1532 1536 1534 1526 1514 1508 1504 1490 1482 1491 1500 1496 1481 1473 1481 1483 1483 1485 1481 1480 1480 1477 1477 1476 1474 1474 1471 1468
1533 1533 1533 1532 1532 1533 1533 1533 1533 1533 1534 1534 1535 1535 1542 1548 1539 1528 1527 1523 1521 1523 1523 1524 1524 1524 1522 1519 1519 1521 1519 1519 1521 1521 1522 1522 1523 1526 1530 1531 1531 1530 1529 1529 1530 1529 1523 1519 1521 1523 1522 1522 1521 1523 1526 1526 1529 1530 1529 1530 1532 1533 1535 1532 1522 1518 1518 1505 1489 1489 1490 1482 1474 1475 1481 1481 1479 1479 1478 1479 1480 1480 1481 1479 1476 1473 1470 1466
1530 1530 1530 1530 1530 1530 1530 1531 1531 1531 1533 1533 1534 1538 1543 1542 1532 1527 1526 1521 1522 1524 1524 1525 1524 1521 1520 1520 1521 1521 1518 1519 1521 1521 1521 1521 1521 1523 1528 1531 1531 1531 1529 1525 1525 1531 1528 1521 1523 1525 1523 1523 1523 1523 1524 1524 1528 1531 1529 1530 1530 1528 1529 1530 1528 1527 1533 1525 1504 1491 1480 1469 1469 1473 1475 1477 1475 1476 1480 1480 1480 1481 1479 1477 1473 1470 1467 1463
1528 1528 1527 1527 1528 1528 1529 1529 1529 1530 1531 1532 1536 1538 1536 1531 1525 1524 1522 1519 1522 1522 1522 1525 1523 1519 1517 1517 1520 1521 1519 1520 1521 1519 1520 1522 1523 1524 1529 1530 1531 1531 1527 1523 1524 1530 1530 1524 1523 1525 1523 1522 1522 1522 1522 1523 1525 1529 1531 1529 1528 1528 1529 1534 1536 1531 1535 1534 1510 1490 1478 1467 1470 1474 1472 1474 1475 1475 1480 1479 1478 1478 1475 1472 1469 1465 1463 1459
1525 1525 1524 1525 1525 1526 1526 1527 1527 1528 1529 1531 1534 1532 1527 1523 1519 1520 1519 1520 1522 1522 1523 1524 1519 1516 1514 1513 1517 1520 1519 1520 1521 1519 1519 1521 1521 1524 1529 1529 1529 1529 1526 1525 1525 1527 1529 1524 1519 1522 1522 1522 1522 1521 1522 1523 1524 1527 1530 1528 1527 1529 1529 1538 1550 1544 1539 1536 1512 1491 1486 1478 1479 1483 1476 1475 1478 1477 1478 1478 1476 1474 1472 1470 1466 1462 1459 1455
1523 1523 1522 1522 1523 1523 1524 1525 1525 1526 1528 1530 1531 1527 1523 1520 1516 1517 1518 1519 1520 1522 1524 1523 1517 1514 1514 1512 1515 1519 1520 1518 1520 1520 1519 1518 1518 1521 1526 1526 1527 1527 1526 1526 1524 1526 1530 1524 1518 1521 1522 1522 1522 1521 1521 1523 1525 1526 1527 1527 1528 1533 1534 1538 1549 1549 1542 1538 1520 1502 1494 1484 1482 1485 1481 1479 1480 1478 1478 1477 1474 1472 1470 1467 1463 1459 1456 1451
1521 1520 1519 1519 1521 1521 1521 1523 1523 1525 1527 1528 1528 1523 1519 1517 1514 1515 1516 1517 1519 1521 1521 1519 1515 1514 1515 1515 1515 1518 1519 1517 1518 1520 1517 1514 1517 1520 1523 1524 1525 1525 1525 1525 1525 1525 1527 1524 1522 1522 1522 1521 1519 1520 1523 1525 1527 1526 1527 1529 1528 1533 1538 1537 1541 1543 1541 1540 1531 1518 1503 1486 1482 1485 1483 1480 1480 1478 1479 1477 1473 1471 1468 1465 1461 1456 1452 1448
1520 1519 1516 1516 1518 1518 1519 1521 1522 1524 1524 1523 1522 1519 1516 1514 1513 1513 1514 1515 1517 1518 1517 1517 1516 1514 1514 1516 1516 1516 1518 1519 1518 1518 1516 1515 1516 1519 1522 1523 1523 1524 1524 1524 1524 1525 1525 1524 1523 1521 1520 1519 1517 1518 1521 1524 1528 1529 1530 1533 1533 1534 1536 1536 1538 1540 1541 1544 1543 1537 1516 1486 1479 1485 1481 1479 1480 1479 1480 1477 1473 1470 1466 1463 1459 1453 1448 1444
1519 1517 1514 1514 1516 1516 1518 1519 1520 1521 1520 1518 1517 1516 1514 1512 1510 1511 1512 1513 1514 1514 1514 1515 1514 1513 1513 1515 1515 1514 1517 1518 1518 1516 1515 1514 1514 1516 1519 1521 1521 1522 1523 1523 1523 1524 1523 1524 1523 1521 1520 1519 1516 1517 1519 1521 1525 1528 1530 1533 1535 1537 1539 1541 1541 1535 1537 1542 1544 1547 1528 1488 1477 1485 1481 1479 1480 1477 1479 1477 1472 1468 1463 1459 1455 1450 1444 1439
1516 1514 1511 1513 1514 1514 1516 1517 1517 1518 1516 1513 1512 1511 1510 1509 1508 1509 1509 1510 1511 1511 1512 1513 1512 1512 1512 1511 1511 1513 1514 1515 1516 1515 1513 1512 1513 1514 1517 1519 1520 1521 1521 1521 1522 1522 1523 1525 1525 1521 1519 1519 1518 1519 1520 1522 1524 1526 1529 1530 1531 1535 1538 1545 1546 1536 1535 1536 1533 1541 1526 1485 1473 1483 1481 1479 1480 1476 1477 1475 1470 1466 1460 1454 1450 1445 1439 1433
1512 1510 1509 1511 1512 1513 1514 1514 1515 1516 1513 1508 1507 1507 1506 1506 1506 1507 1507 1508 1509 1508 1509 1510 1509 1509 1508 1507 1509 1511 1511 1510 1511 1511 1511 1512 1514 1514 1516 1518 1519 1520 1520 1520 1520 1521 1522 1524 1525 1520 1516 1520 1524 1524 1523 1524 1526 1527 1527 1528 1531 1533 1533 1538 1539 1536 1537 1534 1531 1540 1524 1482 1471 1482 1480 1478 1479 1476 1474 1472 1467 1462 1455 1450 1446 1439 1433 1428
1509 1507 1507 1508 1510 1511 1510 1507 1508 1510 1508 1506 1506 1505 1505 1504 1503 1503 1504 1504 1504 1505 1505 1505 1505 1504 1505 1505 1506 1506 1507 1507 1505 1507 1511 1513 1514 1514 1516 1517 1518 1519 1518 1517 1518 1519 1518 1519 1521 1520 1518 1520 1524 1527 1527 1526 1527 1527 1527 1528 1529 1531 1532 1534 1534 1535 1538 1529 1525 1534 1520 1485 1474 1480 1477 1476 1477 1474 1472 1469 1465 1459 1451 1445 1440 1434 1429 1424
1507 1505 1504 1504 1506 1506 1504 1500 1500 1502 1503 1503 1503 1501 1502 1502 1499 1498 1499 1499 1499 1500 1501 1501 1501 1502 1504 1506 1506 1505 1505 1503 1503 1506 1510 1513 1515 1516 1516 1517 1518 1518 1517 1517 1518 1518 1519 1519 1520 1520 1522 1522 1519 1519 1522 1525 1526 1525 1524 1525 1527 1529 1531 1532 1534 1539 1538 1524 1515 1520 1511 1487 1477 1479 1476 1473 1473 1470 1468 1465 1462 1457 1449 1442 1437 1431 1426 1420
1504 1501 1500 1503 1504 1502 1498 1496 1497 1497 1497 1500 1500 1497 1497 1497 1495 1495 1496 1496 1496 1497 1498 1499 1500 1502 1504 1505 1505 1504 1504 1504 1505 1506 1509 1513 1516 1517 1516 1517 1518 1518 1517 1519 1519 1519 1523 1523 1520 1519 1520 1521 1518 1515 1517 1524 1527 1526 1523 1520 1521 1526 1526 1529 1535 1536 1529 1521 1512 1507 1502 1489 1480 1478 1474 1469 1469 1467 1463 1461 1458 1453 1446 1441 1436 1429 1422 1415
1499 1494 1492 1497 1499 1497 1496 1495 1496 1494 1493 1494 1494 1492 1492 1493 1493 1494 1496 1495 1494 1495 1497 1498 1499 1499 1500 1502 1503 1503 1504 1506 1506 1507 1509 1513 1515 1516 1516 1517 1518 1518 1518 1519 1520 1521 1525 1525 1521 1520 1518 1518 1519 1518 1519 1525 1528 1528 1525 1518 1516 1520 1522 1525 1531 1526 1522 1523 1512 1497 1494 1490 1482 1478 1474 1468 1466 1465 1461 1459 1456 1450 1446 1441 1435 1426 1417 1408
1492 1486 1484 1488 1488 1487 1489 1489 1488 1489 1490 1489 1488 1487 1488 1491 1491 1491 1492 1493 1493 1493 1494 1496 1496 1495 1495 1497 1498 1501 1505 1507 1508 1508 1510 1512 1514 1516 1517 1517 1518 1518 1518 1520 1520 1521 1525 1524 1521 1521 1520 1520 1521 1521 1521 1525 1528 1527 1523 1517 1515 1517 1517 1519 1521 1516 1516 1519 1507 1492 1491 1490 1481 1477 1475 1469 1465 1463 1460 1458 1454 1449 1444 1438 1430 1422 1413 1402
1485 1482 1481 1482 1479 1476 1477 1477 1480 1484 1485 1485 1484 1483 1484 1485 1485 1486 1488 1491 1492 1491 1490 1491 1492 1492 1493 1494 1494 1497 1501 1502 1503 1506 1509 1511 1514 1515 1516 1516 1517 1518 1519 1521 1521 1522 1525 1524 1522 1522 1523 1522 1523 1522 1521 1525 1528 1526 1520 1515 1515 1514 1512 1513 1513 1511 1510 1508 1498 1491 1490 1486 1480 1477 1473 1468 1464 1461 1458 1456 1452 1447 1438 1430 1424 1417 1408 1399
1474 1473 1473 1477 1476 1473 1473 1473 1476 1479 1480 1481 1480 1478 1477 1478 1478 1481 1483 1484 1486 1488 1487 1486 1487 1489 1492 1493 1491 1492 1493 1493 1494 1499 1504 1508 1511 1513 1513 1512 1514 1518 1520 1521 1522 1522 1524 1523 1523 1525 1525 1522 1520 1521 1522 1524 1527 1524 1517 1511 1512 1512 1509 1509 1508 1507 1507 1502 1494 1490 1488 1482 1476 1474 1470 1465 1461 1457 1455 1453 1450 1444 1435 1425 1418 1412 1404 1395
1464 1466 1467 1470 1470 1469 1470 1470 1472 1475 1474 1474 1472 1470 1471 1472 1471 1475 1478 1477 1478 1481 1482 1482 1484 1488 1491 1491 1489 1488 1489 1490 1491 1493 1497 1501 1504 1507 1508 1508 1511 1515 1519 1521 1521 1521 1523 1524 1524 1525 1525 1519 1517 1521 1523 1524 1527 1525 1517 1512 1510 1509 1507 1504 1503 1503 1503 1498 1493 1491 1488 1480 1472 1470 1469 1464 1459 1454 1452 1451 1447 1440 1434 1425 1416 1410 1403 1394
1459 1462 1462 1464 1464 1463 1464 1466 1468 1468 1463 1461 1462 1462 1464 1466 1466 1472 1476 1476 1475 1477 1478 1479 1481 1485 1489 1489 1487 1486 1487 1489 1491 1493 1495 1499 1501 1503 1506 1507 1508 1511 1515 1519 1520 1519 1521 1523 1523 1526 1525 1519 1518 1522 1524 1527 1527 1518 1509 1506 1505 1504 1503 1499 1498 1499 1497 1495 1494 1491 1486 1478 1472 1471 1468 1462 1457 1453 1449 1451 1449 1439 1433 1429 1421 1412 1403 1394